Find Starlink 33583

NORAD ID: 63503 Int'l Des: 2025-071 Owner: SPXS Country: US Constellation: starlink operational
LEOCIRCULAR

現在のビュー

3D地球を読み込み中...

Starlink 33583について

説明を読み込み中...

次回通過

Passes for default location (London). Set your location on the main map for personalized predictions.

高度履歴

Loading altitude history...

軌道要素

1 63503U 25071L 26145.01362681 .00051932 00000-0 11937-2 0 9990
2 63503 53.1587 145.5282 0001562 97.4609 262.6574 15.42185205 64469
Epoch: May 25, 2026 • Age: 14 hours

現在のステータス

高度 445.0 km
速度 7.65 km/s
衛星直下点 -18.16°S, 32.07°E
打ち上げ日 Apr 7, 2025
運用期間 1.1 years
タイプ internet

技術仕様

分類 Payload
質量 575.00 kg
乾燥質量 530.00 kg
総質量 575.00 kg
長さ 0.30 m
直径 4.10 m
スパン 29.00 m
形状 Box + pan
製造者 SPXS
バスタイプ Starlink V2MO
フェーズステータス In Orbit
所有者/国 SPXS/US

Most Searched